Regional Weather Roundup
Issued by NWS

Home | Current Version | Previous Version | Graphics & Text | Print | Product List | Glossary On
Versions: 1 2 3 4 5 6 7 8 9 10 11 12 13 14 15 16 17 18 19 20 21 22 23 24 25 26 27 28 29 30 31 32 33 34 35 36 37 38 39 40 41 42 43 44 45 46 47 48 49 50
953
ASUS44 KMEG 200500
RWRTN
TENNESSEE HOURLY STATE WEATHER ROUNDUP
NATIONAL WEATHER SERVICE MEMPHIS TN
1100 PM CST THU JAN 19 2017

TNZ002-004-019-021-049-052-054-088>092-200600-
WEST TENNESSEE

CITY           SKY/WX    TMP DP  RH WIND       PRES   REMARKS
MEMPHIS INTL   CLOUDY    57  56  96 SW13G28   29.74R
NWS MEMPHIS      N/A     57 N/A N/A MISG        N/A
JACKSON        PTCLDY    57  56  96 S9        29.70S
DYERSBURG      CLOUDY    57  54  88 SW7       29.69F
UNION CITY     CLOUDY   N/A N/A N/A CALM      29.68S
PARIS          MOCLDY    54  54 100 CALM      29.68F
$$

TNZ008-025-027-028-033-062-065-066-200600-
NORTH MIDDLE TENNESSEE

CITY           SKY/WX    TMP DP  RH WIND       PRES   REMARKS
NASHVILLE      LGT RAIN  58  56  93 S6        29.69F
CLARKSVILLE    FOG       54  53  97 S5        29.69S VSB 1/2
SMYRNA         LGT RAIN  57  56  96 SE6       29.70F
CROSSVILLE     LGT RAIN  52  51  97 S7        29.78F
$$

TNZ061-075-076-078-094-096-097-200600-
SOUTH MIDDLE TENNESSEE

CITY           SKY/WX    TMP DP  RH WIND       PRES   REMARKS
TULLAHOMA      CLOUDY    59  57  94 W15       29.73F
WINCHESTER     CLOUDY    61  57  88 SE5       29.73F
COLUMBIA       MOCLDY   N/A N/A N/A S3        29.69S
SHELBYVILLE    MOCLDY    59  59 100 CALM      29.72F
$$

TNZ017-018-042-046-047-200600-
NORTHEAST TENNESSEE

CITY           SKY/WX    TMP DP  RH WIND       PRES   REMARKS
TRI CITIES     CLOUDY    54  42  64 CALM      29.84F
$$

TNZ012-013-036-069-073-074-200600-
CENTRAL EAST TENNESSEE

CITY           SKY/WX    TMP DP  RH WIND       PRES   REMARKS
KNOXVILLE      LGT RAIN  54  46  74 W3        29.79F
OAK RIDGE      LGT RAIN  52  48  86 SW3       29.82F
GATLINBURG     MOCLDY    50  46  87 CALM      29.78F
$$

TNZ083-085-099-200600-
SOUTHEAST TENNESSEE

CITY           SKY/WX    TMP DP  RH WIND       PRES   REMARKS
CHATTANOOGA    LGT RAIN  55  52  89 S5        29.80F FOG
$$

SKY/WX REPORTED AS FAIR MEANS FEW OR NO CLOUDS BELOW
12 THOUSAND FEET.





USA.gov is the U.S. government's official web portal to all federal, state and local government web resources and services.